Presure
313 312 305 305 287 283 268 265 263 272 284 294 279 277 280 276 278 278 291 281 225 217 213 201 199 196 182
290 304 336 324 307 304 301 290 285 283 288 272 290 295 280 286 277 285 270 287 290 229 226 211 143 209 143
254 225 274 286 292 306 305 294 284 273 264 361 431 465 483 516 316 290 283 269 273 287 231 222 213 207 208
229 246 252 261 260 277 249 316 290 260 277 405 421 444 499 414 390 325 275 272 267 271 288 220 221 218 207
242 258 227 245 250 264 272 284 306 263 280 406 433 456 455 344 367 348 344 273 269 264 262 267 241 219 215
235 235 248 262 239 249 246 265 295 277 266 351 431 403 343 319 315 322 325 357 302 261 267 233 132 247 227
238 254 239 241 251 235 247 247 260 288 256 270 430 357 326 312 312 317 336 322 330 360 265 274 269 285 234
250 238 246 245 248 253 253 242 256 275 267 257 292 346 347 324 310 315 316 316 341 355 348 277 261 270 134
266 249 253 246 255 244 248 256 254 260 280 257 250 290 346 344 342 322 344 309 317 335 342 325 319 283 274
259 255 263 254 251 236 249 245 249 252 257 276 249 243 281 304 373 332 311 299 306 317 325 323 328 322 282
278 239 259 265 259 251 234 255 246 251 248 259 274 248 249 261 304 313 381 364 332 318 306 306 308 321 345
242 237 240 275 261 253 247 247 253 248 245 256 264 287 249 248 251 285 295 305 326 360 370 365 358 344 325
259 248 242 246 241 264 253 251 253 247 249 232 252 261 280 249 247 247 252 290 291 292 303 309 324 363 364
304 260 298 257 249 250 267 261 256 255 248 248 253 248 254 278 252 248 244 249 254 281 282 283 293 147 142
312 286 297 267 263 261 251 265 263 259 256 248 247 251 242 251 270 273 245 249 240 248 254 279 276 279 204
369 346 359 309 286 278 267 258 255 264 251 257 260 255 250 264 265 261 298 251 246 246 238 247 250 268 269
384 397 348 314 300 297 279 276 242 259 268 256 261 256 255 251 260 262 249 271 283 250 246 241 236 242 242
Wind_Speed
45 52 57 59 66 68 73 75 78 83 83 84 85 87 84 83 82 84 83 92 112 112 111 108 106 100 90
34 35 37 42 50 53 55 56 62 69 70 73 77 83 89 87 88 87 87 87 87 114 113 111 69 107 72
40 47 38 36 40 44 51 55 58 59 65 72 53 47 45 56 86 85 90 94 94 92 111 114 112 117 114
46 45 43 41 43 44 50 48 51 55 60 57 47 41 32 62 60 85 91 93 96 96 84 113 119 117 117
49 46 46 49 45 45 45 47 48 48 53 51 34 31 28 34 62 79 94 94 96 98 100 107 115 118 117
53 53 50 46 51 47 46 45 50 43 43 54 19 25 36 37 36 50 62 65 94 97 100 90 55 119 118
57 53 53 53 49 50 47 45 42 44 37 41 16 40 46 49 55 58 59 64 68 63 94 101 103 103 123
58 56 56 53 53 48 47 45 42 43 37 31 38 18 50 48 48 58 60 56 50 55 67 98 95 103 55
65 60 59 57 56 52 50 46 43 38 38 28 25 27 15 40 49 49 45 51 50 48 59 75 83 99 101
68 64 63 59 56 50 51 49 44 40 34 35 25 23 25 19 39 45 48 51 52 56 55 57 64 72 98
72 59 65 64 61 55 49 49 46 42 36 33 33 28 24 22 13 14 39 53 54 57 56 57 61 65 66
65 63 59 68 62 57 56 53 48 43 41 38 34 31 30 27 23 19 13 12 17 33 49 57 61 64 63
70 66 64 61 56 62 60 58 52 46 43 41 38 35 33 34 28 27 23 17 16 16 15 19 22 42 49
73 68 74 66 61 58 65 62 57 52 47 44 42 39 36 35 37 34 31 29 24 24 22 21 17 61 60
74 72 74 67 65 64 58 64 63 57 53 49 45 44 42 39 37 38 37 37 34 29 28 27 28 28 51
66 68 66 73 69 70 66 63 60 63 56 54 53 48 45 41 43 40 37 43 40 38 36 33 31 31 32
56 61 67 68 70 71 70 70 58 62 64 56 57 51 48 46 44 45 45 42 43 46 44 41 38 38 36
Wind_Direction
285 279 276 275 273 272 272 272 271 270 270 270 265 261 254 248 243 242 236 233 237 241 245 249 253 253 257
311 303 294 289 285 283 282 280 279 278 281 274 272 261 255 246 240 234 236 234 232 236 238 244 249 250 254
300 291 303 307 306 297 287 284 282 283 282 298 305 302 252 231 233 232 229 232 232 232 235 239 242 249 252
296 294 295 299 298 303 292 302 291 289 299 315 311 304 268 204 212 226 228 227 231 233 227 235 238 241 248
298 296 293 292 294 299 305 311 308 298 314 323 312 292 237 217 220 227 230 225 227 230 230 230 234 239 243
292 294 293 296 293 295 293 305 322 313 317 344 309 208 188 199 212 224 222 229 228 231 231 235 252 232 236
289 290 290 292 292 293 296 298 311 321 315 327 284 186 203 221 220 230 232 233 233 235 231 232 233 233 235
283 288 287 290 290 294 294 295 307 320 316 322 338 331 222 229 234 237 238 240 242 238 233 232 233 233 254
282 284 282 285 288 289 292 298 299 309 320 309 313 330 307 248 244 248 234 248 247 240 235 234 236 235 235
282 281 277 279 281 287 287 289 291 297 304 309 297 288 318 313 247 247 251 254 252 253 252 244 241 241 238
275 283 277 274 275 279 284 282 284 290 290 298 299 289 290 301 306 279 246 244 246 247 251 246 243 245 249
280 280 278 270 273 274 277 277 279 280 284 289 294 292 282 282 284 291 277 278 265 250 249 250 253 250 248
275 274 275 274 273 270 272 275 274 275 276 275 280 283 283 278 273 274 273 272 258 256 260 258 257 253 253
265 270 264 270 269 270 267 269 271 271 271 272 276 273 272 281 271 272 266 267 268 269 259 256 255 256 257
264 267 263 264 265 266 265 267 266 266 267 268 269 270 269 267 274 267 269 270 260 265 272 264 266 267 258
257 259 259 257 259 260 262 263 265 265 267 267 268 267 266 271 271 267 266 264 267 266 259 264 267 268 272
260 257 253 255 256 255 257 259 258 263 264 266 267 269 268 266 268 269 266 265 259 262 263 261 258 262 261